GW1907 Weather Reports


Display with metric or nautical units.
time (UTC)temp
F
wind
direction
speed
MPH
gust
MPH
rain 1hr
in
rain 24hr
in
rain mn
in
humidity
%
barometer
mb
20260510094809 69 112 0.0 1.0 0.00 0.00 0.00 88 1013.6
20260510094304 69 122 1.0 2.0 0.00 0.00 0.00 88 1013.6
20260510093800 69 148 0.0 0.0 0.00 0.00 0.00 89 1013.6
20260510093257 69 127 0.0 0.0 0.00 0.00 0.00 89 1013.6
20260510092753 69 128 0.0 0.0 0.00 0.00 0.00 89 1013.6
20260510092249 69 128 0.0 0.0 0.00 0.00 0.00 89 1013.2
20260510091745 69 128 0.0 0.0 0.00 0.00 0.00 89 1013.2
20260510091242 69 128 0.0 0.0 0.00 0.00 0.00 89 1013.2
20260510090738 69 128 0.0 0.0 0.00 0.00 0.00 88 1013.2
20260510090236 69 128 0.0 0.0 0.00 0.00 0.00 88 1013.2
20260510085731 69 128 0.0 0.0 0.00 0.00 0.00 87 1013.2
20260510085226 69 128 0.0 0.0 0.00 0.00 0.00 87 1013.2
20260510084722 70 128 0.0 0.0 0.00 0.00 0.00 86 1013.2
20260510084219 70 128 0.0 0.0 0.00 0.00 0.00 85 1013.2
20260510083716 70 130 0.0 0.0 0.00 0.00 0.00 86 1013.2
20260510083213 71 132 0.0 0.0 0.00 0.00 0.00 84 1013.6
20260510082708 70 131 0.0 1.0 0.00 0.00 0.00 85 1013.6
20260510082205 71 131 0.0 0.0 0.00 0.00 0.00 85 1013.2
20260510081704 71 131 0.0 0.0 0.00 0.00 0.00 85 1013.2
20260510081201 71 131 0.0 0.0 0.00 0.00 0.00 84 1012.9
20260510080655 71 131 0.0 0.0 0.00 0.00 0.00 83 1013.6
20260510080152 72 134 0.0 0.0 0.00 0.00 0.00 83 1013.6
20260510075649 72 136 0.0 0.0 0.00 0.00 0.00 81 1013.2
20260510075146 72 136 0.0 1.0 0.00 0.00 0.00 81 1013.2
20260510074643 72 136 1.0 1.0 0.00 0.00 0.00 81 1013.2
20260510074139 72 136 0.0 0.0 0.00 0.00 0.00 81 1012.9
20260510073636 73 139 0.0 0.0 0.00 0.00 0.00 81 1013.2
20260510073132 73 142 0.0 0.0 0.00 0.00 0.00 80 1013.2
20260510072628 73 139 0.0 0.0 0.00 0.00 0.00 79 1012.9
20260510072125 73 148 0.0 1.0 0.00 0.00 0.00 80 1012.9
20260510071620 73 142 0.0 0.0 0.00 0.00 0.00 80 1012.9
20260510071118 73 148 0.0 1.0 0.00 0.00 0.00 80 1012.9
20260510070615 73 151 0.0 1.0 0.00 0.00 0.00 80 1012.9
20260510070112 73 145 1.0 1.0 0.00 0.00 0.00 80 1013.2
20260510065603 73 154 1.0 2.0 0.00 0.00 0.00 80 1012.9
20260510065059 73 142 0.0 1.0 0.00 0.00 0.00 81 1013.2
20260510064555 74 147 1.0 1.0 0.00 0.00 0.00 81 1013.2
20260510064052 74 142 0.0 0.0 0.00 0.00 0.00 81 1013.2
20260510063549 74 159 1.0 1.0 0.00 0.00 0.00 80 1012.9
20260510063046 75 166 1.0 1.0 0.00 0.00 0.00 80 1012.9
20260510062542 75 162 1.0 2.0 0.00 0.00 0.00 80 1013.2
20260510062037 75 149 1.0 2.0 0.00 0.00 0.00 81 1013.2
20260510061534 75 174 1.0 2.0 0.00 0.00 0.00 81 1013.2
20260510061031 74 150 1.0 1.0 0.00 0.00 0.00 82 1013.2
20260510060527 74 156 1.0 1.0 0.00 0.00 0.00 83 1013.2
20260510060023 74 143 0.0 1.0 0.00 0.00 0.00 83 1013.2
20260510055519 75 139 0.0 0.0 0.00 0.00 0.00 83 1013.2
20260510055018 75 139 0.0 0.0 0.00 0.00 0.00 82 1013.2
20260510054513 76 141 0.0 0.0 0.00 0.00 0.00 80 1013.2
20260510054009 76 138 1.0 1.0 0.00 0.00 0.00 79 1012.9
20260510053503 76 142 1.0 1.0 0.00 0.00 0.00 79 1012.9
20260510053000 76 136 0.0 1.0 0.00 0.00 0.00 79 1012.9
20260510052456 76 173 3.0 3.0 0.00 0.00 0.00 79 1012.9
20260510051953 77 138 1.0 1.0 0.00 0.00 0.00 79 1012.9
20260510051448 77 136 0.0 0.0 0.00 0.00 0.00 79 1012.9
20260510050945 77 144 0.0 0.0 0.00 0.00 0.00 78 1012.9
20260510050442 77 145 2.0 3.0 0.00 0.00 0.00 78 1012.5
20260510045939 77 171 1.0 2.0 0.00 0.02 0.02 78 1012.9
20260510045436 77 155 2.0 2.0 0.00 0.02 0.02 79 1012.9
20260510044933 77 171 2.0 2.0 0.00 0.02 0.02 79 1012.5
20260510044430 77 147 1.0 1.0 0.00 0.02 0.02 79 1012.5
20260510043926 77 159 3.0 3.0 0.00 0.02 0.02 79 1012.9
20260510043422 77 139 0.0 1.0 0.00 0.02 0.02 79 1012.5
20260510042921 77 164 2.0 3.0 0.00 0.02 0.02 79 1012.5
20260510042416 77 145 1.0 1.0 0.00 0.02 0.02 79 1012.5
20260510041912 78 141 1.0 1.0 0.00 0.02 0.02 79 1012.5
20260510041410 78 139 0.0 1.0 0.00 0.02 0.02 78 1012.5
20260510040907 78 148 1.0 1.0 0.00 0.02 0.02 78 1012.5
20260510040404 79 161 2.0 2.0 0.00 0.02 0.02 77 1012.5
20260510035900 79 157 1.0 2.0 0.00 0.02 0.02 77 1012.5
20260510035356 79 139 1.0 2.0 0.00 0.02 0.02 77 1012.5
20260510034851 79 138 2.0 3.0 0.00 0.02 0.02 76 1012.5
20260510034349 78 124 2.0 3.0 0.00 0.02 0.02 78 1012.5
20260510033845 77 122 0.0 0.0 0.00 0.02 0.02 80 1012.2
20260510033342 78 122 0.0 0.0 0.00 0.02 0.02 80 1012.2
20260510032838 78 121 0.0 0.0 0.00 0.02 0.02 78 1012.2
20260510032336 78 120 1.0 1.0 0.00 0.02 0.02 79 1011.9
20260510031831 77 130 0.0 0.0 0.00 0.02 0.02 81 1011.9
20260510031326 77 131 0.0 0.0 0.00 0.02 0.02 81 1011.5
20260510030821 77 132 0.0 0.0 0.00 0.02 0.02 80 1011.9
20260510030318 78 135 0.0 0.0 0.00 0.02 0.02 80 1011.5
20260510025815 78 136 0.0 0.0 0.00 0.02 0.02 79 1011.5
20260510025312 78 136 0.0 0.0 0.00 0.02 0.02 78 1011.5
20260510024809 78 136 0.0 0.0 0.00 0.02 0.02 78 1011.5
20260510024306 79 137 0.0 0.0 0.00 0.02 0.02 77 1011.9
20260510023802 80 142 1.0 1.0 0.00 0.02 0.02 76 1011.5
20260510023259 81 142 0.0 0.0 0.00 0.02 0.02 73 1011.5
20260510022755 82 128 0.0 0.0 0.00 0.02 0.02 71 1011.2
20260510022250 82 130 0.0 0.0 0.00 0.02 0.02 71 1011.2
20260510021749 82 136 0.0 0.0 0.00 0.02 0.02 71 1011.5
20260510021247 82 130 0.0 1.0 0.00 0.02 0.02 70 1011.2
20260510020743 82 132 0.0 0.0 0.00 0.02 0.02 70 1011.2
20260510020243 83 130 1.0 2.0 0.00 0.02 0.02 69 1011.2
20260510015739 83 135 1.0 1.0 0.00 0.02 0.02 68 1011.2
20260510015235 84 131 1.0 1.0 0.00 0.02 0.02 68 1011.2
20260510014730 84 131 1.0 1.0 0.00 0.02 0.02 67 1011.2
20260510014228 84 132 1.0 1.0 0.00 0.02 0.02 66 1011.2
20260510013724 84 128 0.0 1.0 0.00 0.02 0.02 65 1010.9
20260510013219 84 135 1.0 1.0 0.00 0.02 0.02 65 1010.5
20260510012719 84 130 1.0 1.0 0.00 0.02 0.02 64 1010.9
20260510012215 85 138 3.0 6.0 0.00 0.02 0.02 62 1010.5
20260510011709 85 142 0.0 0.0 0.00 0.02 0.02 62 1010.5
20260510011205 85 136 0.0 1.0 0.00 0.02 0.02 61 1010.9
20260510010702 86 136 1.0 2.0 0.00 0.02 0.02 60 1010.5
20260510010159 86 130 0.0 1.0 0.00 0.02 0.02 59 1010.2
20260510005655 87 158 1.0 2.0 0.00 0.02 0.02 58 1010.2
20260510005151 87 137 2.0 2.0 0.00 0.02 0.02 58 1010.5
20260510004650 87 137 3.0 3.0 0.00 0.02 0.02 57 1010.5
20260510004148 87 154 3.0 5.0 0.00 0.02 0.02 57 1010.2
20260510003645 88 154 3.0 3.0 0.00 0.02 0.02 56 1010.2
20260510003140 88 135 3.0 5.0 0.00 0.02 0.02 55 1010.2
20260510002640 88 136 2.0 3.0 0.00 0.02 0.02 55 1010.2
20260510002137 89 190 3.0 3.0 0.00 0.02 0.02 55 1010.2
20260510001634 89 179 5.0 5.0 0.00 0.02 0.02 54 1010.2
20260510001133 90 170 6.0 8.0 0.00 0.02 0.02 52 1009.8
20260510000633 90 161 2.0 2.0 0.00 0.02 0.02 48 1010.2
20260510000131 90 162 4.0 5.0 0.00 0.02 0.02 48 1009.8
20260509235627 91 169 6.0 7.0 0.00 0.02 0.02 48 1009.5
20260509235124 90 171 3.0 3.0 0.00 0.02 0.02 49 1009.5
20260509234619 91 149 5.0 7.0 0.00 0.02 0.02 49 1009.5
20260509234118 91 182 3.0 3.0 0.00 0.02 0.02 49 1009.8
20260509233615 91 179 3.0 3.0 0.00 0.02 0.02 50 1009.5
20260509233112 91 189 2.0 3.0 0.00 0.02 0.02 49 1009.5
20260509232608 91 193 4.0 5.0 0.00 0.02 0.02 49 1009.2
20260509232106 92 173 3.0 3.0 0.00 0.02 0.02 51 1009.2
20260509231602 92 168 4.0 6.0 0.00 0.02 0.02 50 1009.5
20260509231059 92 184 1.0 2.0 0.00 0.02 0.02 50 1009.8
20260509230556 92 179 3.0 3.0 0.00 0.02 0.02 51 1009.8
20260509230053 91 165 3.0 3.0 0.00 0.02 0.02 51 1009.8
20260509225549 91 180 5.0 7.0 0.00 0.02 0.02 52 1009.8
20260509225044 92 183 3.0 5.0 0.00 0.02 0.02 51 1010.2
20260509224540 92 174 4.0 5.0 0.00 0.02 0.02 52 1010.2
20260509224037 93 174 3.0 3.0 0.00 0.02 0.02 51 1009.8
20260509223534 92 164 1.0 2.0 0.00 0.02 0.02 51 1009.8
20260509223032 92 169 7.0 7.0 0.00 0.02 0.02 51 1009.5
20260509222528 92 191 3.0 5.0 0.00 0.02 0.02 52 1009.5
20260509222023 92 139 5.0 6.0 0.00 0.02 0.02 51 1009.8
20260509221520 92 96 1.0 1.0 0.00 0.02 0.02 51 1009.5
20260509221016 93 131 3.0 3.0 0.00 0.02 0.02 51 1009.8
20260509220512 92 151 1.0 1.0 0.00 0.02 0.02 50 1009.8
20260509220008 92 207 3.0 3.0 0.00 0.02 0.02 52 1009.8
20260509215503 91 186 2.0 2.0 0.00 0.02 0.02 53 1009.8
20260509215001 91 173 3.0 3.0 0.00 0.02 0.02 54 1009.8
20260509214458 91 131 1.0 1.0 0.00 0.02 0.02 53 1010.2
20260509213955 91 144 3.0 3.0 0.00 0.02 0.02 54 1009.8
20260509213451 91 160 3.0 5.0 0.00 0.02 0.02 54 1009.8
20260509212948 92 157 2.0 3.0 0.00 0.02 0.02 53 1010.2
20260509212445 92 168 1.0 2.0 0.00 0.02 0.02 54 1009.8
20260509211942 92 131 3.0 5.0 0.00 0.02 0.02 54 1010.2
20260509211437 92 124 2.0 2.0 0.00 0.02 0.02 54 1009.8
20260509210934 92 167 2.0 2.0 0.00 0.02 0.02 55 1009.8
20260509210431 92 152 2.0 3.0 0.00 0.02 0.02 54 1010.2
20260509205927 91 176 1.0 1.0 0.00 0.02 0.02 56 1010.2
20260509205421 91 179 1.0 1.0 0.00 0.02 0.02 55 1010.2
20260509204917 91 164 4.0 5.0 0.00 0.02 0.02 54 1010.2
20260509204414 91 185 1.0 2.0 0.00 0.02 0.02 55 1010.2
20260509203910 91 168 1.0 2.0 0.00 0.02 0.02 58 1010.5
20260509203406 91 186 3.0 3.0 0.00 0.02 0.02 58 1010.5
20260509202904 90 215 1.0 2.0 0.00 0.02 0.02 58 1010.5
20260509202359 90 185 3.0 3.0 0.00 0.02 0.02 56 1010.5
20260509201855 90 152 5.0 7.0 0.00 0.02 0.02 58 1010.9
20260509201350 89 148 4.0 5.0 0.00 0.02 0.02 59 1010.9
20260509200848 88 189 1.0 2.0 0.00 0.02 0.02 62 1010.9
20260509200342 88 236 2.0 2.0 0.00 0.02 0.02 61 1011.2
20260509195840 89 164 1.0 1.0 0.00 0.02 0.02 60 1011.2
20260509195339 90 209 2.0 3.0 0.00 0.02 0.02 58 1011.2
20260509194839 90 224 1.0 1.0 0.00 0.02 0.02 58 1011.2
20260509194336 91 215 4.0 5.0 0.00 0.02 0.02 58 1011.5
20260509193833 91 176 4.0 5.0 0.00 0.02 0.02 55 1011.5
20260509193332 90 172 1.0 1.0 0.00 0.02 0.02 57 1011.5
20260509192829 89 209 4.0 5.0 0.00 0.02 0.02 58 1011.9
20260509192325 90 258 4.0 7.0 0.00 0.02 0.02 56 1011.9
20260509191820 89 186 3.0 3.0 0.00 0.02 0.02 57 1011.9
20260509191316 88 349 3.0 3.0 0.00 0.02 0.02 59 1011.9
20260509190812 89 325 2.0 2.0 0.00 0.02 0.02 60 1011.9
20260509190310 88 285 2.0 2.0 0.00 0.02 0.02 61 1011.9
20260509185807 88 352 1.0 1.0 0.00 0.02 0.02 61 1011.9
20260509185306 88 280 2.0 2.0 0.00 0.02 0.02 62 1012.2
20260509184800 87 268 2.0 3.0 0.00 0.02 0.02 61 1011.9
20260509184258 86 204 1.0 2.0 0.00 0.02 0.02 64 1012.2
20260509183754 87 339 4.0 7.0 0.00 0.02 0.02 62 1012.2
20260509183249 88 262 2.0 3.0 0.00 0.02 0.02 62 1012.2
20260509182745 88 185 1.0 1.0 0.00 0.02 0.02 64 1012.2
20260509182243 88 301 3.0 3.0 0.00 0.02 0.02 64 1012.5
20260509181735 88 269 1.0 2.0 0.00 0.02 0.02 61 1012.5
20260509181232 88 181 3.0 3.0 0.00 0.02 0.02 62 1012.5
20260509180729 87 201 3.0 5.0 0.00 0.02 0.02 64 1012.5
20260509180225 88 260 2.0 3.0 0.00 0.02 0.02 63 1012.5
20260509175722 87 160 1.0 2.0 0.00 0.02 0.02 62 1012.5
20260509175218 87 229 4.0 6.0 0.00 0.02 0.02 65 1012.5
20260509174714 86 205 3.0 3.0 0.00 0.02 0.02 65 1012.5
20260509174209 85 257 2.0 2.0 0.00 0.02 0.02 67 1012.9
20260509173706 85 245 3.0 5.0 0.00 0.02 0.02 67 1012.9
20260509173201 85 290 2.0 2.0 0.00 0.02 0.02 69 1012.9
20260509172658 84 228 2.0 3.0 0.00 0.02 0.02 70 1012.9
20260509172154 84 204 3.0 3.0 0.00 0.02 0.02 70 1012.9
20260509171649 85 214 4.0 5.0 0.00 0.02 0.02 70 1012.9
20260509171146 84 297 4.0 5.0 0.00 0.02 0.02 71 1012.9
20260509170643 84 207 3.0 3.0 0.00 0.02 0.02 73 1012.9
20260509170139 83 191 3.0 3.0 0.00 0.02 0.02 77 1013.2
20260509165637 83 316 3.0 5.0 0.00 0.02 0.02 77 1013.2
20260509165133 83 208 2.0 2.0 0.00 0.02 0.02 77 1012.9
20260509164629 83 290 4.0 5.0 0.00 0.02 0.02 77 1012.9
20260509164125 82 266 3.0 3.0 0.00 0.02 0.02 78 1013.2
20260509163623 83 215 4.0 6.0 0.00 0.02 0.02 77 1013.2
20260509163118 82 201 3.0 5.0 0.00 0.02 0.02 77 1012.9
20260509162616 81 178 2.0 2.0 0.00 0.02 0.02 76 1013.2
20260509162112 81 287 3.0 5.0 0.00 0.02 0.02 76 1012.9
20260509161608 80 242 6.0 7.0 0.00 0.02 0.02 76 1012.9
20260509161108 81 255 5.0 7.0 0.00 0.02 0.02 77 1012.5
20260509160605 80 236 3.0 3.0 0.00 0.02 0.02 79 1012.5
20260509160100 80 223 3.0 5.0 0.00 0.02 0.02 77 1012.9
20260509155556 80 104 2.0 2.0 0.00 0.02 0.02 78 1012.9
20260509155052 79 48 2.0 2.0 0.00 0.02 0.02 81 1012.9
20260509154543 79 34 1.0 2.0 0.00 0.02 0.02 79 1013.2
20260509154041 79 53 1.0 2.0 0.00 0.02 0.02 81 1012.9
20260509153538 78 52 1.0 1.0 0.00 0.02 0.02 81 1013.2
20260509153035 77 43 2.0 2.0 0.00 0.02 0.02 83 1013.2
20260509152530 77 88 1.0 1.0 0.00 0.02 0.02 83 1013.6
20260509152028 76 52 1.0 1.0 0.00 0.02 0.02 90 1013.6
20260509151524 76 20 1.0 1.0 0.00 0.02 0.02 94 1013.6
20260509151022 74 72 1.0 1.0 0.00 0.02 0.02 95 1013.6
20260509150519 74 68 1.0 1.0 0.00 0.02 0.02 95 1013.9
20260509150018 73 83 1.0 2.0 0.02 0.02 0.02 96 1013.6
20260509145513 73 110 3.0 3.0 0.02 0.02 0.02 96 1013.6
20260509145008 73 94 2.0 2.0 0.02 0.02 0.02 97 1013.6
20260509144505 73 78 0.0 0.0 0.02 0.02 0.02 97 1013.6
20260509144002 73 116 2.0 2.0 0.01 0.01 0.01 97 1013.6
20260509143459 73 108 2.0 2.0 0.01 0.01 0.01 97 1013.6
20260509142956 73 131 2.0 2.0 0.00 0.00 0.00 97 1013.6
20260509142452 73 82 0.0 0.0 0.00 0.00 0.00 97 1013.9
20260509141948 73 143 4.0 6.0 0.00 0.00 0.00 97 1013.9
20260509141444 73 81 0.0 0.0 0.00 0.00 0.00 97 1013.9
20260509140941 73 85 0.0 0.0 0.00 0.00 0.00 97 1013.9
20260509140437 73 77 0.0 0.0 0.00 0.00 0.00 97 1013.6
20260509135936 73 120 0.0 0.0 0.00 0.00 0.00 97 1013.6
20260509135433 73 123 1.0 1.0 0.00 0.00 0.00 97 1013.2
20260509134930 73 92 0.0 0.0 0.00 0.00 0.00 97 1013.6
20260509134428 73 63 0.0 0.0 0.00 0.00 0.00 97 1012.9
20260509133925 73 60 0.0 0.0 0.00 0.00 0.00 97 1012.5
20260509133421 73 61 0.0 0.0 0.00 0.00 0.00 97 1011.9
20260509132920 73 60 0.0 0.0 0.00 0.00 0.00 97 1011.9
20260509132418 73 69 0.0 0.0 0.00 0.00 0.00 97 1011.9
20260509131914 73 91 0.0 0.0 0.00 0.00 0.00 97 1012.2
20260509131412 73 68 0.0 0.0 0.00 0.00 0.00 97 1012.5
20260509130908 73 68 0.0 0.0 0.00 0.00 0.00 97 1012.9
20260509130403 73 91 2.0 2.0 0.00 0.00 0.00 97 1012.9
20260509125901 73 95 1.0 1.0 0.00 0.00 0.00 97 1012.9
20260509125357 73 82 1.0 2.0 0.00 0.00 0.00 97 1013.2
20260509124853 73 78 0.0 1.0 0.00 0.00 0.00 97 1013.2
20260509124350 73 71 0.0 0.0 0.00 0.00 0.00 97 1013.6
20260509123848 73 67 0.0 0.0 0.00 0.00 0.00 97 1013.2
20260509123345 73 55 0.0 0.0 0.00 0.00 0.00 97 1013.6
20260509122841 73 57 0.0 1.0 0.00 0.00 0.00 97 1013.2
20260509122338 73 45 0.0 0.0 0.00 0.00 0.00 97 1013.2
20260509121835 73 56 1.0 2.0 0.00 0.00 0.00 97 1013.6
20260509121332 73 23 1.0 2.0 0.00 0.00 0.00 97 1013.6
20260509120830 73 48 0.0 0.0 0.00 0.00 0.00 97 1013.6
20260509120327 73 42 1.0 2.0 0.00 0.00 0.00 97 1013.6
20260509115826 73 10 5.0 6.0 0.00 0.00 0.00 97 1013.2
20260509115322 73 26 2.0 3.0 0.00 0.00 0.00 97 1012.9
20260509114820 73 6 2.0 3.0 0.00 0.00 0.00 97 1012.9
20260509114319 73 52 1.0 1.0 0.00 0.00 0.00 97 1013.2
20260509113818 73 41 1.0 2.0 0.00 0.00 0.00 97 1012.5
20260509113314 73 52 0.0 0.0 0.00 0.00 0.00 97 1012.5
20260509112811 73 58 1.0 5.0 0.00 0.00 0.00 97 1012.2
20260509112308 73 50 1.0 2.0 0.00 0.00 0.00 97 1012.2
20260509111805 73 60 0.0 0.0 0.00 0.00 0.00 97 1012.2
20260509111302 73 39 2.0 2.0 0.00 0.00 0.00 97 1011.9
20260509110759 73 52 0.0 1.0 0.00 0.00 0.00 97 1012.2
20260509110255 72 59 1.0 2.0 0.00 0.00 0.00 97 1012.2
20260509105754 72 55 2.0 3.0 0.00 0.00 0.00 97 1012.2
20260509105252 73 59 0.0 0.0 0.00 0.00 0.00 97 1012.2
20260509104748 73 59 0.0 1.0 0.00 0.00 0.00 97 1012.2
20260509104245 73 52 1.0 2.0 0.00 0.00 0.00 97 1012.2
20260509103743 73 65 0.0 0.0 0.00 0.00 0.00 97 1012.2
20260509103240 73 61 1.0 2.0 0.00 0.00 0.00 97 1012.2
20260509102738 73 64 0.0 0.0 0.00 0.00 0.00 97 1012.5
20260509102235 73 59 1.0 1.0 0.00 0.00 0.00 97 1012.5
20260509101731 73 61 2.0 2.0 0.00 0.00 0.00 97 1012.9
20260509101227 73 74 2.0 3.0 0.00 0.00 0.00 97 1012.5
20260509100725 73 56 0.0 0.0 0.00 0.00 0.00 97 1012.5
20260509100222 73 56 2.0 2.0 0.00 0.00 0.00 97 1012.5
20260509095719 73 76 2.0 3.0 0.00 0.00 0.00 97 1012.2
20260509095216 73 67 1.0 1.0 0.00 0.00 0.00 97 1012.2